Regional Weather Roundup
Issued by NWS Goodland, KS

Home | Current Version | Previous Version | Text Only | Print | Product List | Glossary Off
Versions: 1 2 3 4 5 6 7 8 9 10 11 12 13 14 15 16 17 18 19 20 21 22 23 24 25 26 27 28 29 30 31 32 33 34 35 36 37 38 39 40 41 42 43 44 45 46 47 48 49 50

000
ASUS43 KGLD 271159
RWRGLD

GOODLAND FORECAST AREA HOURLY WEATHER ROUNDUP
NATIONAL WEATHER SERVICE GOODLAND KS
600 AM MDT SAT AUG 27 2016

...OFFICIAL OBSERVATIONS...

CITY           SKY/WX    TMP DP  RH WIND       PRES   REMARKS
GOODLAND KS    FOG       54  54 100 SE3       30.07R VSB 1/4
HILL CITY KS   CLEAR     55  54  96 N6        30.06R
IMPERIAL NEB   CLOUDY    51  51 100 NE5       30.08S
MCCOOK NEB     MOCLDY    51  49  92 N7        30.07R
AKRON CO       CLEAR     48  46  93 S3        30.09R
BURLINGTON CO  FOG       53  51  93 S6        30.08R VSB 1/4
LIMON CO       CLEAR     44  44 100 N7        30.12R FOG
$$

...UNOFFICIAL OBSERVATIONS...

CITY           SKY/WX    TMP DP  RH WIND       PRES   REMARKS
LENORA KS        N/A     54  32  43 MISG        N/A
SHARON SPRINGS   N/A     56  55  96 SE5         N/A
TRENTON NEB      N/A     51  32  48 MISG        N/A
KIT CARSON CO    N/A     50  46  84 CALM        N/A
YUMA CO          N/A     47  46  95 CALM        N/A
$$




USA.gov is the U.S. government's official web portal to all federal, state and local government web resources and services.